SCP
0 0 0 0 0 0 0 0 0 0 0 0 0 0 0 0 0 0 0 0 1 1 1 1 1 1 1 1 1 1 1 1 0 0 0 0 0 0 0 0 0 0 0
0 0 0 0 0 0 0 0 0 0 0 0 0 0 0 0 0 0 0 0 1 1 1 1 1 1 1 1 1 1 1 1 0 0 0 0 0 0 0 0 0 0 0
0 0 0 0 0 0 0 0 0 0 0 0 0 0 0 0 0 0 0 0 1 1 1 1 1 1 1 1 1 1 1 1 1 0 0 0 0 0 0 0 0 0 0
0 0 0 0 0 0 0 0 0 0 0 0 0 0 0 0 0 0 0 0 1 1 1 1 1 1 1 1 1 1 1 1 1 1 1 0 0 0 0 0 0 0 0
0 0 0 0 0 0 0 0 0 0 0 0 0 0 0 0 0 0 0 0 0 1 1 1 1 1 1 1 1 1 1 1 1 1 1 1 0 0 0 0 0 0 0
0 0 0 0 0 0 0 0 0 0 0 0 0 0 0 0 0 0 0 0 0 1 1 1 1 1 1 1 1 1 1 1 1 1 1 1 1 0 0 0 0 0 0
0 0 0 0 0 0 0 0 0 0 0 0 0 0 0 0 0 0 0 0 0 1 1 1 1 1 1 1 1 1 1 1 1 1 1 1 1 0 0 0 0 0 0
0 0 0 0 0 0 0 0 0 0 0 0 0 0 0 0 0 0 0 0 0 0 0 0 0 1 1 1 1 1 1 1 1 1 1 1 1 1 0 0 0 0 0
0 0 0 0 0 0 0 0 0 0 0 0 0 0 0 0 0 0 0 0 0 0 0 0 0 1 1 1 1 1 1 1 1 1 1 1 1 1 0 0 0 0 0
0 0 0 0 0 0 0 0 0 0 0 0 0 0 0 0 0 0 0 0 0 0 0 0 1 1 1 1 1 1 1 1 1 1 1 1 1 1 1 0 0 0 0
0 0 0 0 0 0 0 0 0 0 0 0 0 0 0 0 0 0 0 0 0 0 0 0 1 1 1 1 1 1 1 2 2 1 1 1 1 1 1 1 0 0 0
0 0 0 0 0 0 0 0 0 0 0 0 0 0 0 0 0 0 0 0 0 0 0 0 0 0 0 0 0 1 1 1 2 2 2 1 1 1 1 1 1 1 1
0 0 0 0 0 0 0 0 0 0 0 0 0 0 0 0 0 0 0 0 0 0 0 0 0 0 0 0 0 0 1 1 1 2 2 2 1 2 1 1 1 1 1
0 0 0 0 0 0 0 0 0 0 0 0 0 0 0 0 0 0 0 0 0 0 0 0 0 0 0 0 0 0 0 0 1 1 1 2 2 2 2 2 1 1 1
0 0 0 0 0 0 0 0 0 0 0 0 0 0 0 0 0 0 0 0 0 0 0 0 0 0 0 0 0 0 0 0 0 1 1 1 1 2 2 2 1 1 1
0 0 0 0 0 0 0 0 0 0 0 0 0 0 0 0 0 0 0 0 0 0 0 0 0 0 0 0 0 0 0 0 0 0 1 1 1 1 2 1 1 1 1
0 0 0 0 0 0 0 0 0 0 0 0 0 0 0 0 0 0 0 0 0 0 0 0 0 0 0 0 0 0 0 0 0 0 0 1 1 1 1 1 1 1 1
0 0 0 0 0 0 0 0 0 0 0 0 0 0 0 0 0 0 0 0 0 0 0 0 0 0 0 0 0 0 0 0 0 0 0 0 1 1 1 1 1 0 0
0 0 0 0 0 0 0 0 0 0 0 0 0 0 0 0 0 0 0 0 0 0 0 0 0 0 0 0 0 0 0 0 0 0 0 0 0 1 1 1 1 0 0
0 0 0 0 0 0 0 0 0 0 0 0 0 0 0 0 0 0 0 0 0 0 0 0 0 0 0 0 0 0 0 0 0 0 0 0 0 0 0 0 0 0 0
0 0 0 0 0 0 0 0 0 0 0 0 0 0 0 0 0 0 0 0 0 0 0 0 0 0 0 0 0 0 0 0 0 0 0 0 0 0 0 0 0 0 0
0 0 0 0 0 0 0 0 0 0 0 0 0 0 0 0 0 0 0 0 0 0 0 0 0 0 0 0 0 0 0 0 0 0 0 0 0 0 0 0 0 0 0
0 0 0 0 0 0 0 0 0 0 0 0 0 0 0 0 0 0 0 0 0 0 0 0 0 0 0 0 0 0 0 0 0 0 0 0 0 0 0 0 0 0 0
0 0 0 0 0 0 0 0 0 0 0 0 0 0 0 0 0 0 0 0 0 0 0 0 0 0 0 0 0 0 0 0 0 0 0 0 0 0 0 0 0 0 0
0 0 0 0 0 0 0 0 0 0 0 0 0 0 0 0 0 0 0 0 0 0 0 0 0 0 0 0 0 0 0 0 0 0 0 0 0 0 0 0 0 0 0
0 0 0 0 0 0 0 0 0 0 0 0 0 0 0 0 0 0 0 0 0 0 0 0 0 0 0 0 0 0 0 0 0 0 0 0 0 0 0 0 0 0 0
Wind_Speed
5 5 5 5 5 6 6 6 7 6 5 4 4 4 4 4 4 3 4 4 4 4 3 3 3 4 4 5 6 4 4 3 2 2 0 1 1 2 3 3 4 5 5
6 6 6 5 5 6 6 7 7 7 6 4 4 3 4 4 4 4 4 4 4 4 4 4 4 4 4 5 6 5 4 3 4 3 2 1 1 2 3 3 4 5 4
6 6 6 6 6 6 7 7 7 7 6 6 4 4 3 3 3 4 4 4 5 4 4 4 4 4 5 5 6 7 7 5 4 4 4 4 4 2 1 3 4 5 5
5 6 6 7 7 6 6 6 6 7 6 6 5 5 4 4 4 4 4 6 5 5 4 4 5 5 4 5 6 7 6 6 5 4 3 2 3 3 2 1 2 4 5
6 6 6 7 6 6 6 6 6 6 6 6 5 5 5 5 5 5 6 5 4 4 5 4 4 4 4 5 5 5 6 5 6 5 4 3 1 2 3 3 2 2 3
6 6 6 5 6 6 5 5 6 6 6 7 6 6 7 7 7 7 6 5 4 3 4 4 4 4 4 5 6 6 7 6 6 5 5 5 4 4 3 3 2 3 2
5 6 7 6 6 7 6 6 6 6 7 7 7 7 7 7 6 6 6 5 4 3 4 4 4 4 4 5 5 6 6 7 7 7 5 5 5 4 3 3 3 2 1
5 6 6 6 6 6 6 6 6 6 6 6 7 6 7 5 4 5 5 5 4 4 5 5 4 4 4 4 4 5 6 6 7 8 7 5 5 5 4 4 4 3 2
6 6 6 5 5 6 5 5 5 5 6 6 6 6 7 6 6 6 5 4 4 5 5 5 4 4 3 3 3 3 4 5 6 6 7 6 5 5 4 4 4 5 4
6 6 5 5 5 4 4 4 4 4 5 5 5 5 6 6 6 6 7 7 6 6 6 6 5 4 3 3 2 2 3 4 4 4 6 6 5 5 5 5 4 4 4
7 6 5 5 5 4 4 4 4 4 4 5 5 5 6 6 6 6 7 7 6 6 6 6 5 4 3 3 2 2 2 3 4 4 6 6 6 5 5 5 5 5 4
6 5 5 5 4 4 4 4 4 4 4 4 4 5 5 6 6 6 7 7 7 7 6 6 6 5 4 3 2 2 2 2 3 4 5 6 5 6 5 5 6 6 5
6 5 4 4 5 5 4 4 4 4 4 3 4 5 5 6 6 6 7 7 7 7 7 6 6 6 5 4 3 2 2 2 3 3 5 6 7 7 5 6 6 5 5
6 5 5 5 5 5 4 4 4 3 3 3 3 4 5 5 5 6 6 6 6 6 7 6 6 6 5 5 4 3 2 2 2 3 4 5 6 7 7 6 6 6 6
6 6 5 5 5 5 4 3 4 3 2 3 3 4 5 5 5 5 6 6 6 6 6 6 7 6 5 5 4 3 3 2 2 2 2 4 6 8 8 6 6 7 6
7 7 6 5 5 5 4 4 4 3 2 2 3 4 5 5 5 6 6 6 6 6 6 6 6 7 6 10 9 5 2 2 2 2 2 2 4 8 9 10 11 10 8
7 7 6 6 6 5 4 4 3 2 1 3 4 4 4 5 5 6 6 6 6 5 6 6 6 7 8 12 10 7 2 2 2 2 1 1 2 4 4 7 10 10 10
7 7 6 5 5 4 3 3 2 1 2 3 4 4 4 5 5 5 5 5 4 5 5 6 6 6 9 13 11 8 3 2 2 2 1 0 1 2 4 5 6 5 5
7 6 6 5 4 4 3 3 2 2 2 4 4 4 3 4 5 5 5 4 4 5 4 5 6 7 9 13 12 7 2 2 3 3 2 1 1 3 7 6 6 5 4
6 5 4 3 4 4 3 4 4 3 4 5 4 4 3 3 4 5 4 3 4 4 4 4 5 6 7 12 12 8 2 2 2 2 2 3 3 4 6 5 6 6 5
6 5 4 4 5 4 4 5 5 6 6 4 3 3 3 3 3 3 3 3 4 4 4 5 5 5 7 10 12 9 2 2 2 2 2 2 4 5 6 5 4 6 6
5 5 5 5 4 4 5 6 7 7 4 3 3 3 3 3 2 2 3 3 4 4 5 5 5 4 5 7 10 10 7 4 2 2 2 2 5 7 7 5 8 10 8
5 5 5 6 5 5 6 7 8 5 4 4 5 4 4 3 2 2 2 2 3 3 3 4 4 5 5 6 10 10 9 7 3 3 5 6 8 7 6 8 10 7 5
5 4 5 6 6 6 7 9 7 5 5 6 5 4 4 4 3 2 2 1 2 2 3 3 4 4 4 4 5 5 4 5 4 4 6 8 9 7 7 7 5 4 4
4 4 5 7 9 7 7 8 7 6 6 6 6 5 4 4 4 3 3 3 4 4 3 2 2 3 3 5 7 4 3 2 2 2 3 3 3 4 4 4 4 4 4
4 4 6 8 9 7 8 8 7 7 7 6 6 5 4 4 3 3 3 6 7 8 8 6 4 4 5 6 7 6 5 3 2 3 2 2 2 3 3 3 3 3 3
Wind_Direction
295 306 312 320 327 330 331 326 327 326 333 332 329 324 319 312 308 299 292 291 287 277 259 256 240 217 216 217 204 193 191 193 165 136 103 324 270 224 215 198 190 195 194
310 314 315 320 322 321 324 324 326 324 327 321 308 292 290 292 287 294 303 296 291 283 271 249 243 228 221 220 208 191 179 187 172 158 140 188 299 269 223 198 201 202 187
295 306 312 311 317 321 322 325 323 323 322 324 319 316 310 309 316 317 311 304 300 289 273 260 244 233 223 223 214 200 188 186 185 178 162 168 201 215 250 218 207 193 191
293 300 307 311 314 313 317 322 324 323 326 331 332 333 326 316 302 301 295 298 294 292 283 267 249 236 226 226 222 209 201 183 185 185 189 178 161 163 191 265 221 199 198
286 296 301 300 307 313 318 322 328 329 332 337 334 330 324 308 304 305 303 303 299 295 293 280 259 243 233 229 224 212 204 196 188 175 166 170 167 175 161 188 200 200 208
292 299 301 308 311 318 324 329 334 330 335 339 340 338 329 324 325 324 321 315 305 299 303 298 277 255 242 235 225 214 208 206 198 186 171 167 168 184 175 173 179 192 205
289 296 303 310 313 319 323 327 332 328 333 338 340 338 333 329 326 324 322 321 316 310 309 304 294 275 254 242 229 218 213 207 201 195 192 186 185 168 166 161 158 164 184
284 286 288 293 303 311 320 325 327 324 329 335 334 335 338 335 330 327 324 322 315 305 311 306 295 288 279 260 234 222 218 210 208 205 196 191 191 183 176 170 156 153 179
282 284 290 295 300 305 310 316 320 323 329 334 333 335 341 343 341 338 337 333 327 321 324 320 311 299 296 288 256 232 223 212 210 206 200 196 191 189 187 176 169 163 177
282 287 290 293 296 296 302 316 321 321 325 334 338 342 341 343 342 345 347 343 338 335 333 331 325 317 305 295 274 251 236 216 211 203 199 199 190 189 192 190 185 176 171
275 278 282 288 295 303 308 313 320 324 328 333 336 343 342 343 346 347 344 342 338 339 341 339 340 336 332 323 293 266 240 223 218 210 202 202 189 186 192 189 185 182 167
269 272 278 291 300 304 307 305 306 314 316 324 335 339 339 342 345 342 339 341 342 341 341 342 347 346 343 337 327 299 269 233 223 214 205 201 191 189 189 189 190 185 176
278 280 283 288 289 291 296 297 297 303 312 327 337 340 340 340 338 336 336 340 342 342 345 347 347 344 340 337 335 324 292 253 239 224 214 205 190 191 189 186 186 184 179
271 271 275 279 280 281 283 290 291 296 308 327 337 335 330 328 328 332 337 338 339 342 344 343 344 340 335 333 333 333 324 298 268 242 224 208 194 190 185 185 183 179 173
267 264 262 270 278 280 282 280 283 298 313 329 332 323 321 326 332 338 337 337 342 344 342 345 346 343 339 338 336 328 326 320 312 286 245 218 199 195 189 184 180 175 171
259 262 262 265 269 268 268 269 274 286 303 316 315 319 326 332 336 335 336 340 344 343 349 350 344 344 342 340 342 337 323 323 316 301 279 233 206 201 198 191 184 178 174
250 252 253 250 256 258 250 249 255 263 292 304 310 319 324 328 330 334 341 342 341 344 347 345 345 342 336 343 349 354 345 334 323 306 303 267 203 183 177 182 179 182 181
242 243 241 246 253 250 241 234 228 237 278 296 303 310 319 321 327 336 338 335 334 339 339 340 341 339 342 350 353 357 358 354 349 341 309 274 228 183 157 152 152 155 164
229 231 228 228 242 246 228 196 215 238 270 281 287 297 309 316 326 333 331 329 331 336 336 336 344 345 341 350 354 359 347 358 5 0 4 49 132 160 139 136 133 129 129
225 225 225 220 236 238 192 188 218 235 253 260 269 284 295 304 312 317 319 321 322 322 329 339 344 345 341 346 352 359 352 6 3 3 19 43 66 100 119 131 134 133 127
224 218 211 222 234 216 179 204 223 236 242 250 264 279 286 289 294 312 319 326 331 337 342 340 337 343 344 345 354 3 5 8 9 15 22 39 75 90 97 108 122 129 125
227 210 211 234 236 199 189 216 233 238 236 239 254 267 277 285 307 317 324 336 343 345 344 342 340 340 343 349 354 9 22 27 32 23 19 47 77 88 93 98 117 119 114
233 217 214 238 243 211 199 219 238 226 217 230 245 256 265 268 275 290 311 328 342 342 336 338 337 334 338 347 0 9 18 25 34 41 55 65 74 80 88 100 108 109 108
243 229 220 236 247 228 215 226 235 210 207 228 242 244 250 263 263 249 251 269 294 311 320 326 326 325 332 347 352 351 1 18 32 44 61 68 69 71 78 82 79 78 96
260 237 230 240 249 243 231 232 223 201 211 228 237 238 236 244 255 249 232 232 236 222 243 269 282 306 324 327 337 344 347 356 23 53 56 58 67 70 68 69 70 76 87
292 272 255 250 255 250 246 241 217 199 206 225 233 230 228 232 237 252 272 242 235 248 245 239 238 252 265 302 332 350 1 12 48 73 75 71 77 91 94 98 86 79 95